| time (UTC) | temp F | wind direction | speed MPH | gust MPH | rain 1hr in | rain 24hr in | rain mn in | humidity % | barometer mb |
| 20260502152017 | 61 | 0.0 | 2.0 | 0.00 | 0.00 | 0.00 | 31 | 1023.2 | |
| 20260502151517 | 60 | 0.0 | 1.0 | 0.00 | 0.00 | 0.00 | 32 | 1023.3 | |
| 20260502151016 | 61 | 0 | 1.0 | 2.0 | 0.00 | 0.00 | 0.00 | 32 | 1023.3 |
| 20260502150516 | 61 | 0.0 | 2.0 | 0.00 | 0.00 | 0.00 | 29 | 1023.3 | |
| 20260502130556 | 50 | 90 | 2.0 | 3.0 | 0.00 | 0.00 | 0.00 | 35 | 1022.6 |
| 20260502123516 | 50 | 90 | 3.0 | 5.0 | 0.00 | 0.00 | 0.00 | 34 | 1022.8 |
| 20260502123036 | 50 | 113 | 2.0 | 4.0 | 0.00 | 0.00 | 0.00 | 34 | 1022.8 |
| 20260502122516 | 51 | 0.0 | 0.0 | 0.00 | 0.00 | 0.00 | 33 | 1022.8 | |
| 20260502122016 | 51 | 0.0 | 0.0 | 0.00 | 0.00 | 0.00 | 33 | 1023.1 | |
| 20260502121516 | 52 | 0.0 | 2.0 | 0.00 | 0.00 | 0.00 | 32 | 1023.2 | |
| 20260502121036 | 52 | 113 | 3.0 | 4.0 | 0.00 | 0.00 | 0.00 | 32 | 1023.2 |
| 20260502120516 | 52 | 113 | 5.0 | 7.0 | 0.00 | 0.00 | 0.00 | 31 | 1023.2 |
| 20260502115516 | 50 | 113 | 8.0 | 9.0 | 0.00 | 0.00 | 0.00 | 32 | 1022.9 |
| 20260502115016 | 50 | 90 | 5.0 | 7.0 | 0.00 | 0.00 | 0.00 | 33 | 1022.9 |
| 20260502114516 | 50 | 90 | 3.0 | 6.0 | 0.00 | 0.00 | 0.00 | 34 | 1022.9 |
| 20260502114016 | 50 | 113 | 5.0 | 7.0 | 0.00 | 0.00 | 0.00 | 35 | 1022.9 |
| 20260502113516 | 49 | 113 | 5.0 | 8.0 | 0.00 | 0.00 | 0.00 | 34 | 1022.5 |
| 20260502113016 | 49 | 113 | 3.0 | 7.0 | 0.00 | 0.00 | 0.00 | 36 | 1022.5 |
| 20260502112516 | 49 | 0.0 | 2.0 | 0.00 | 0.00 | 0.00 | 37 | 1022.6 | |
| 20260502112037 | 50 | 0.0 | 0.0 | 0.00 | 0.00 | 0.00 | 36 | 1023.0 | |
| 20260502111516 | 50 | 113 | 2.0 | 4.0 | 0.00 | 0.00 | 0.00 | 36 | 1023.0 |
| 20260502111016 | 50 | 113 | 3.0 | 4.0 | 0.00 | 0.00 | 0.00 | 36 | 1023.0 |
| 20260502110516 | 49 | 113 | 4.0 | 7.0 | 0.00 | 0.00 | 0.00 | 36 | 1022.7 |
| 20260502110016 | 49 | 113 | 5.0 | 9.0 | 0.00 | 0.00 | 0.00 | 37 | 1022.7 |
| 20260502105516 | 48 | 90 | 2.0 | 5.0 | 0.00 | 0.00 | 0.00 | 38 | 1022.7 |
| 20260502105036 | 49 | 0.0 | 0.0 | 0.00 | 0.00 | 0.00 | 39 | 1022.7 | |
| 20260502104516 | 49 | 90 | 2.0 | 3.0 | 0.00 | 0.00 | 0.00 | 40 | 1022.8 |
| 20260502104016 | 49 | 90 | 2.0 | 5.0 | 0.00 | 0.00 | 0.00 | 39 | 1022.8 |
| 20260502103516 | 49 | 23 | 1.0 | 2.0 | 0.00 | 0.00 | 0.00 | 39 | 1022.8 |
| 20260502103016 | 49 | 23 | 2.0 | 3.0 | 0.00 | 0.00 | 0.00 | 39 | 1022.7 |
| 20260502102516 | 49 | 0 | 2.0 | 3.0 | 0.00 | 0.00 | 0.00 | 38 | 1022.7 |
| 20260502102016 | 49 | 113 | 1.0 | 3.0 | 0.00 | 0.00 | 0.00 | 39 | 1022.6 |
| 20260502101516 | 50 | 113 | 2.0 | 3.0 | 0.00 | 0.00 | 0.00 | 39 | 1022.9 |
| 20260502101016 | 50 | 113 | 2.0 | 3.0 | 0.00 | 0.00 | 0.00 | 39 | 1022.9 |
| 20260502100536 | 50 | 135 | 3.0 | 5.0 | 0.00 | 0.00 | 0.00 | 37 | 1022.7 |
| 20260502091516 | 52 | 113 | 1.0 | 3.0 | 0.00 | 0.00 | 0.00 | 36 | 1022.7 |
| 20260502091036 | 52 | 113 | 4.0 | 7.0 | 0.00 | 0.00 | 0.00 | 36 | 1022.7 |
| 20260502090516 | 52 | 90 | 7.0 | 8.0 | 0.00 | 0.00 | 0.00 | 37 | 1022.7 |
| 20260502071516 | 54 | 113 | 8.0 | 10.0 | 0.00 | 0.00 | 0.00 | 29 | 1023.0 |
| 20260502071016 | 54 | 113 | 8.0 | 11.0 | 0.00 | 0.00 | 0.00 | 28 | 1023.1 |
| 20260502070536 | 54 | 113 | 8.0 | 14.0 | 0.00 | 0.00 | 0.00 | 28 | 1023.1 |
| 20260502070016 | 54 | 113 | 7.0 | 14.0 | 0.00 | 0.00 | 0.00 | 28 | 1023.1 |
| 20260502065516 | 54 | 113 | 9.0 | 12.0 | 0.00 | 0.00 | 0.00 | 28 | 1023.0 |
| 20260502065015 | 54 | 90 | 5.0 | 9.0 | 0.00 | 0.00 | 0.00 | 29 | 1022.8 |
| 20260502064516 | 53 | 113 | 5.0 | 9.0 | 0.00 | 0.00 | 0.00 | 30 | 1022.7 |
| 20260502064016 | 53 | 0.0 | 3.0 | 0.00 | 0.00 | 0.00 | 31 | 1022.7 | |
| 20260502063515 | 53 | 293 | 2.0 | 4.0 | 0.00 | 0.00 | 0.00 | 34 | 1022.7 |
| 20260502063015 | 53 | 113 | 1.0 | 4.0 | 0.00 | 0.00 | 0.00 | 36 | 1022.8 |
| 20260502062536 | 53 | 113 | 2.0 | 4.0 | 0.00 | 0.00 | 0.00 | 36 | 1022.9 |
| 20260502062016 | 53 | 113 | 2.0 | 5.0 | 0.00 | 0.00 | 0.00 | 35 | 1022.6 |
| 20260502061536 | 53 | 90 | 1.0 | 3.0 | 0.00 | 0.00 | 0.00 | 35 | 1022.6 |
| 20260502061015 | 53 | 90 | 2.0 | 5.0 | 0.00 | 0.00 | 0.00 | 35 | 1022.6 |
| 20260502060515 | 53 | 113 | 1.0 | 5.0 | 0.00 | 0.00 | 0.00 | 34 | 1022.6 |
| 20260502060015 | 53 | 135 | 1.0 | 4.0 | 0.00 | 0.00 | 0.00 | 33 | 1022.7 |
| 20260502055517 | 53 | 158 | 3.0 | 9.0 | 0.00 | 0.00 | 0.00 | 31 | 1022.5 |
| 20260502055017 | 54 | 113 | 6.0 | 12.0 | 0.00 | 0.00 | 0.00 | 33 | 1022.5 |
| 20260502054517 | 54 | 113 | 8.0 | 11.0 | 0.00 | 0.00 | 0.00 | 31 | 1022.5 |
| 20260502054037 | 54 | 113 | 6.0 | 9.0 | 0.00 | 0.00 | 0.00 | 33 | 1022.6 |
| 20260502053537 | 53 | 113 | 10.0 | 12.0 | 0.00 | 0.00 | 0.00 | 33 | 1022.3 |
| 20260502053057 | 53 | 113 | 9.0 | 11.0 | 0.00 | 0.00 | 0.00 | 35 | 1022.3 |
| 20260502052517 | 53 | 113 | 8.0 | 12.0 | 0.00 | 0.00 | 0.00 | 38 | 1022.4 |
| 20260502052017 | 52 | 113 | 7.0 | 9.0 | 0.00 | 0.00 | 0.00 | 40 | 1022.0 |
| 20260502051537 | 51 | 113 | 5.0 | 9.0 | 0.00 | 0.00 | 0.00 | 42 | 1022.0 |
| 20260502051016 | 51 | 90 | 3.0 | 8.0 | 0.00 | 0.00 | 0.00 | 44 | 1022.0 |
| 20260502050517 | 51 | 90 | 5.0 | 7.0 | 0.00 | 0.00 | 0.00 | 45 | 1022.0 |
| 20260502050017 | 52 | 45 | 4.0 | 7.0 | 0.00 | 0.00 | 0.00 | 45 | 1022.0 |
| 20260502045517 | 52 | 68 | 6.0 | 9.0 | 0.00 | 0.00 | 0.00 | 45 | 1022.0 |
| 20260502045017 | 52 | 45 | 5.0 | 8.0 | 0.00 | 0.00 | 0.00 | 43 | 1021.7 |
| 20260502044537 | 52 | 113 | 3.0 | 7.0 | 0.00 | 0.00 | 0.00 | 40 | 1021.7 |
| 20260502044017 | 52 | 135 | 5.0 | 7.0 | 0.00 | 0.00 | 0.00 | 40 | 1021.6 |
| 20260502043517 | 53 | 90 | 4.0 | 7.0 | 0.00 | 0.00 | 0.00 | 42 | 1021.6 |
| 20260502043017 | 53 | 113 | 4.0 | 6.0 | 0.00 | 0.00 | 0.00 | 41 | 1021.6 |
| 20260502042516 | 53 | 135 | 3.0 | 5.0 | 0.00 | 0.00 | 0.00 | 42 | 1022.0 |
| 20260502042016 | 53 | 113 | 4.0 | 5.0 | 0.00 | 0.00 | 0.00 | 42 | 1021.9 |
| 20260502041516 | 53 | 113 | 5.0 | 7.0 | 0.00 | 0.00 | 0.00 | 42 | 1022.0 |
| 20260502041037 | 53 | 113 | 5.0 | 8.0 | 0.00 | 0.00 | 0.00 | 43 | 1021.9 |
| 20260502040516 | 53 | 113 | 7.0 | 9.0 | 0.00 | 0.00 | 0.00 | 42 | 1021.5 |
| 20260502040017 | 52 | 113 | 4.0 | 8.0 | 0.00 | 0.00 | 0.00 | 42 | 1021.5 |
| 20260502035516 | 52 | 135 | 4.0 | 7.0 | 0.00 | 0.00 | 0.00 | 43 | 1021.4 |
| 20260502035016 | 53 | 135 | 1.0 | 5.0 | 0.00 | 0.00 | 0.00 | 44 | 1020.9 |
| 20260502034516 | 53 | 45 | 2.0 | 5.0 | 0.00 | 0.00 | 0.00 | 42 | 1021.3 |
| 20260502034036 | 53 | 68 | 5.0 | 8.0 | 0.00 | 0.00 | 0.00 | 43 | 1021.2 |
| 20260502033517 | 54 | 68 | 6.0 | 8.0 | 0.00 | 0.00 | 0.00 | 43 | 1021.1 |
| 20260502033017 | 54 | 90 | 5.0 | 7.0 | 0.00 | 0.00 | 0.00 | 44 | 1021.0 |
| 20260502032517 | 54 | 90 | 6.0 | 8.0 | 0.00 | 0.00 | 0.00 | 44 | 1020.9 |
| 20260502032017 | 54 | 113 | 7.0 | 9.0 | 0.00 | 0.00 | 0.00 | 44 | 1020.5 |
| 20260502031516 | 54 | 113 | 8.0 | 10.0 | 0.00 | 0.00 | 0.00 | 44 | 1020.5 |
| 20260502031017 | 54 | 113 | 8.0 | 10.0 | 0.00 | 0.00 | 0.00 | 45 | 1020.4 |
| 20260502030516 | 54 | 113 | 8.0 | 10.0 | 0.00 | 0.00 | 0.00 | 45 | 1020.3 |
| 20260502030016 | 54 | 90 | 9.0 | 10.0 | 0.00 | 0.00 | 0.00 | 45 | 1020.3 |
| 20260502025517 | 54 | 113 | 8.0 | 10.0 | 0.00 | 0.00 | 0.00 | 44 | 1020.2 |
| 20260502025016 | 54 | 113 | 8.0 | 9.0 | 0.00 | 0.00 | 0.00 | 44 | 1019.7 |
| 20260502024536 | 55 | 113 | 8.0 | 10.0 | 0.00 | 0.00 | 0.00 | 44 | 1019.7 |
| 20260502024017 | 55 | 113 | 6.0 | 9.0 | 0.00 | 0.00 | 0.00 | 42 | 1019.7 |
| 20260502023516 | 56 | 90 | 4.0 | 6.0 | 0.00 | 0.00 | 0.00 | 41 | 1020.0 |
| 20260502023017 | 57 | 68 | 5.0 | 7.0 | 0.00 | 0.00 | 0.00 | 40 | 1020.0 |
| 20260502022516 | 58 | 68 | 5.0 | 7.0 | 0.00 | 0.00 | 0.00 | 38 | 1020.3 |
| 20260502022017 | 59 | 23 | 4.0 | 6.0 | 0.00 | 0.00 | 0.00 | 37 | 1020.0 |
| 20260502021516 | 59 | 338 | 4.0 | 5.0 | 0.00 | 0.00 | 0.00 | 38 | 1019.9 |
| 20260502021017 | 60 | 338 | 4.0 | 6.0 | 0.00 | 0.00 | 0.00 | 38 | 1019.9 |
| 20260502020517 | 60 | 0 | 4.0 | 6.0 | 0.00 | 0.00 | 0.00 | 38 | 1019.9 |
| 20260502020016 | 60 | 338 | 6.0 | 8.0 | 0.00 | 0.00 | 0.00 | 37 | 1019.9 |
| 20260502015517 | 61 | 315 | 4.0 | 8.0 | 0.00 | 0.00 | 0.00 | 36 | 1019.8 |
| 20260502015036 | 61 | 315 | 5.0 | 8.0 | 0.00 | 0.00 | 0.00 | 36 | 1020.1 |
| 20260502014516 | 61 | 338 | 6.0 | 8.0 | 0.00 | 0.00 | 0.00 | 36 | 1020.0 |
| 20260502014016 | 62 | 338 | 6.0 | 8.0 | 0.00 | 0.00 | 0.00 | 35 | 1020.4 |
| 20260502013536 | 62 | 338 | 7.0 | 10.0 | 0.00 | 0.00 | 0.00 | 34 | 1020.4 |
| 20260502013017 | 62 | 0 | 6.0 | 9.0 | 0.00 | 0.00 | 0.00 | 34 | 1020.3 |
| 20260502012536 | 62 | 338 | 7.0 | 11.0 | 0.00 | 0.00 | 0.00 | 34 | 1020.3 |
| 20260502012016 | 62 | 315 | 7.0 | 10.0 | 0.00 | 0.00 | 0.00 | 33 | 1020.0 |
| 20260502011637 | 62 | 338 | 8.0 | 11.0 | 0.00 | 0.00 | 0.00 | 33 | 1020.0 |
| 20260502011016 | 63 | 315 | 7.0 | 11.0 | 0.00 | 0.00 | 0.00 | 32 | 1020.3 |
| 20260502010516 | 63 | 315 | 6.0 | 9.0 | 0.00 | 0.00 | 0.00 | 33 | 1020.3 |
| 20260502010016 | 63 | 315 | 6.0 | 10.0 | 0.00 | 0.00 | 0.00 | 34 | 1020.3 |
| 20260502005516 | 63 | 293 | 6.0 | 10.0 | 0.00 | 0.00 | 0.00 | 32 | 1020.3 |
| 20260502005016 | 63 | 315 | 6.0 | 10.0 | 0.00 | 0.00 | 0.00 | 33 | 1020.3 |
| 20260502004536 | 63 | 315 | 8.0 | 13.0 | 0.00 | 0.00 | 0.00 | 33 | 1020.4 |
| 20260502004016 | 63 | 315 | 7.0 | 13.0 | 0.00 | 0.00 | 0.00 | 33 | 1020.3 |
| 20260502003536 | 63 | 315 | 7.0 | 13.0 | 0.00 | 0.00 | 0.00 | 31 | 1020.3 |
| 20260502003016 | 63 | 315 | 8.0 | 14.0 | 0.00 | 0.00 | 0.00 | 32 | 1020.4 |
| 20260502002516 | 64 | 315 | 7.0 | 11.0 | 0.00 | 0.00 | 0.00 | 32 | 1020.4 |
| 20260502002036 | 64 | 315 | 9.0 | 14.0 | 0.00 | 0.00 | 0.00 | 33 | 1020.9 |
| 20260502001516 | 64 | 315 | 9.0 | 15.0 | 0.00 | 0.00 | 0.00 | 33 | 1020.9 |
| 20260502001036 | 64 | 315 | 9.0 | 14.0 | 0.00 | 0.00 | 0.00 | 33 | 1021.0 |
| 20260502000516 | 64 | 315 | 8.0 | 12.0 | 0.00 | 0.00 | 0.00 | 33 | 1021.0 |
| 20260502000016 | 65 | 338 | 10.0 | 13.0 | 0.00 | 0.00 | 0.00 | 31 | 1021.0 |
| 20260501235516 | 65 | 338 | 8.0 | 13.0 | 0.00 | 0.00 | 0.00 | 32 | 1021.0 |
| 20260501235016 | 64 | 338 | 10.0 | 14.0 | 0.00 | 0.00 | 0.00 | 33 | 1021.1 |
| 20260501234516 | 64 | 315 | 9.0 | 13.0 | 0.00 | 0.00 | 0.00 | 32 | 1021.1 |
| 20260501234016 | 64 | 338 | 9.0 | 14.0 | 0.00 | 0.00 | 0.00 | 32 | 1021.1 |
| 20260501233516 | 64 | 338 | 8.0 | 12.0 | 0.00 | 0.00 | 0.00 | 32 | 1021.1 |
| 20260501233016 | 64 | 315 | 8.0 | 16.0 | 0.00 | 0.00 | 0.00 | 32 | 1021.1 |
| 20260501232516 | 64 | 338 | 12.0 | 15.0 | 0.00 | 0.00 | 0.00 | 32 | 1021.1 |
| 20260501232016 | 64 | 315 | 9.0 | 13.0 | 0.00 | 0.00 | 0.00 | 31 | 1021.1 |
| 20260501231516 | 64 | 315 | 8.0 | 13.0 | 0.00 | 0.00 | 0.00 | 30 | 1021.1 |
| 20260501231016 | 64 | 338 | 11.0 | 17.0 | 0.00 | 0.00 | 0.00 | 32 | 1021.1 |
| 20260501230516 | 64 | 338 | 12.0 | 16.0 | 0.00 | 0.00 | 0.00 | 33 | 1021.2 |
| 20260501230016 | 64 | 315 | 13.0 | 18.0 | 0.00 | 0.00 | 0.00 | 33 | 1021.2 |
| 20260501225536 | 64 | 315 | 12.0 | 16.0 | 0.00 | 0.00 | 0.00 | 34 | 1021.3 |
| 20260501225036 | 64 | 315 | 10.0 | 16.0 | 0.00 | 0.00 | 0.00 | 33 | 1020.9 |
| 20260501224516 | 64 | 338 | 11.0 | 17.0 | 0.00 | 0.00 | 0.00 | 34 | 1021.0 |
| 20260501224016 | 64 | 338 | 12.0 | 18.0 | 0.00 | 0.00 | 0.00 | 34 | 1021.0 |
| 20260501223516 | 64 | 315 | 12.0 | 18.0 | 0.00 | 0.00 | 0.00 | 32 | 1021.0 |
| 20260501223016 | 64 | 315 | 11.0 | 18.0 | 0.00 | 0.00 | 0.00 | 33 | 1021.0 |
| 20260501222516 | 64 | 338 | 11.0 | 18.0 | 0.00 | 0.00 | 0.00 | 31 | 1021.1 |
| 20260501222016 | 64 | 338 | 11.0 | 17.0 | 0.00 | 0.00 | 0.00 | 33 | 1021.5 |
| 20260501221516 | 64 | 315 | 12.0 | 19.0 | 0.00 | 0.00 | 0.00 | 33 | 1021.5 |
| 20260501221016 | 64 | 315 | 12.0 | 18.0 | 0.00 | 0.00 | 0.00 | 32 | 1021.6 |
| 20260501220516 | 64 | 338 | 11.0 | 16.0 | 0.00 | 0.00 | 0.00 | 33 | 1021.7 |
| 20260501220016 | 64 | 315 | 11.0 | 16.0 | 0.00 | 0.00 | 0.00 | 33 | 1021.7 |
| 20260501215536 | 64 | 338 | 13.0 | 17.0 | 0.00 | 0.00 | 0.00 | 33 | 1021.8 |
| 20260501215036 | 64 | 338 | 11.0 | 17.0 | 0.00 | 0.00 | 0.00 | 32 | 1021.8 |
| 20260501214516 | 64 | 315 | 10.0 | 18.0 | 0.00 | 0.00 | 0.00 | 32 | 1021.9 |
| 20260501214016 | 64 | 338 | 11.0 | 16.0 | 0.00 | 0.00 | 0.00 | 31 | 1021.9 |
| 20260501213516 | 64 | 338 | 11.0 | 15.0 | 0.00 | 0.00 | 0.00 | 31 | 1021.9 |
| 20260501213016 | 64 | 315 | 11.0 | 15.0 | 0.00 | 0.00 | 0.00 | 30 | 1022.0 |
| 20260501212516 | 64 | 338 | 10.0 | 15.0 | 0.00 | 0.00 | 0.00 | 32 | 1022.0 |
| 20260501212016 | 64 | 0 | 12.0 | 20.0 | 0.00 | 0.00 | 0.00 | 31 | 1022.0 |
| 20260501211516 | 64 | 338 | 13.0 | 19.0 | 0.00 | 0.00 | 0.00 | 32 | 1022.0 |
| 20260501211016 | 64 | 315 | 13.0 | 19.0 | 0.00 | 0.00 | 0.00 | 32 | 1022.0 |
| 20260501210516 | 63 | 315 | 11.0 | 18.0 | 0.00 | 0.00 | 0.00 | 30 | 1022.1 |
| 20260501210016 | 63 | 315 | 10.0 | 15.0 | 0.00 | 0.00 | 0.00 | 30 | 1022.0 |
| 20260501205516 | 63 | 315 | 9.0 | 16.0 | 0.00 | 0.00 | 0.00 | 30 | 1022.0 |
| 20260501205016 | 63 | 315 | 14.0 | 21.0 | 0.00 | 0.00 | 0.00 | 30 | 1022.0 |
| 20260501204516 | 63 | 315 | 10.0 | 18.0 | 0.00 | 0.00 | 0.00 | 28 | 1021.9 |
| 20260501204016 | 63 | 315 | 11.0 | 16.0 | 0.00 | 0.00 | 0.00 | 26 | 1021.9 |
| 20260501203536 | 63 | 315 | 10.0 | 17.0 | 0.00 | 0.00 | 0.00 | 28 | 1021.9 |
| 20260501203016 | 63 | 315 | 8.0 | 14.0 | 0.00 | 0.00 | 0.00 | 28 | 1021.9 |
| 20260501202516 | 63 | 315 | 9.0 | 12.0 | 0.00 | 0.00 | 0.00 | 30 | 1022.0 |
| 20260501202016 | 63 | 315 | 10.0 | 15.0 | 0.00 | 0.00 | 0.00 | 29 | 1022.3 |
| 20260501201516 | 63 | 315 | 9.0 | 14.0 | 0.00 | 0.00 | 0.00 | 29 | 1022.0 |
| 20260501201036 | 63 | 315 | 8.0 | 18.0 | 0.00 | 0.00 | 0.00 | 28 | 1021.9 |
| 20260501200515 | 63 | 315 | 11.0 | 17.0 | 0.00 | 0.00 | 0.00 | 31 | 1022.4 |
| 20260501200016 | 63 | 315 | 11.0 | 15.0 | 0.00 | 0.00 | 0.00 | 30 | 1022.1 |
| 20260501195515 | 63 | 338 | 12.0 | 18.0 | 0.00 | 0.00 | 0.00 | 29 | 1022.0 |
| 20260501195015 | 62 | 338 | 11.0 | 17.0 | 0.00 | 0.00 | 0.00 | 29 | 1022.0 |
| 20260501194556 | 63 | 338 | 11.0 | 17.0 | 0.00 | 0.00 | 0.00 | 29 | 1022.1 |
| 20260501194016 | 63 | 0 | 10.0 | 18.0 | 0.00 | 0.00 | 0.00 | 29 | 1022.6 |
| 20260501193516 | 63 | 0 | 12.0 | 18.0 | 0.00 | 0.00 | 0.00 | 29 | 1022.6 |
| 20260501193035 | 63 | 338 | 11.0 | 20.0 | 0.00 | 0.00 | 0.00 | 28 | 1022.5 |
| 20260501192516 | 63 | 338 | 13.0 | 20.0 | 0.00 | 0.00 | 0.00 | 28 | 1022.6 |
| 20260501192015 | 64 | 0 | 13.0 | 20.0 | 0.00 | 0.00 | 0.00 | 26 | 1023.0 |
| 20260501191516 | 64 | 0 | 11.0 | 17.0 | 0.00 | 0.00 | 0.00 | 28 | 1023.1 |
| 20260501191035 | 63 | 338 | 8.0 | 13.0 | 0.00 | 0.00 | 0.00 | 28 | 1022.8 |
| 20260501190515 | 63 | 293 | 5.0 | 13.0 | 0.00 | 0.00 | 0.00 | 25 | 1022.9 |
| 20260501190016 | 63 | 338 | 8.0 | 29.0 | 0.00 | 0.00 | 0.00 | 29 | 1023.1 |
| 20260501185516 | 63 | 315 | 7.0 | 11.0 | 0.00 | 0.00 | 0.00 | 25 | 1023.0 |
| 20260501185015 | 63 | 315 | 5.0 | 10.0 | 0.00 | 0.00 | 0.00 | 27 | 1022.7 |
| 20260501184515 | 62 | 0 | 3.0 | 7.0 | 0.00 | 0.00 | 0.00 | 24 | 1022.8 |
| 20260501184015 | 62 | 68 | 7.0 | 12.0 | 0.00 | 0.00 | 0.00 | 27 | 1023.0 |
| 20260501183535 | 62 | 113 | 6.0 | 13.0 | 0.00 | 0.00 | 0.00 | 26 | 1023.0 |
| 20260501183015 | 61 | 45 | 5.0 | 14.0 | 0.00 | 0.00 | 0.00 | 24 | 1022.9 |
| 20260501182515 | 61 | 45 | 3.0 | 9.0 | 0.00 | 0.00 | 0.00 | 23 | 1022.9 |
| 20260501182015 | 62 | 90 | 7.0 | 17.0 | 0.00 | 0.00 | 0.00 | 23 | 1023.4 |
| 20260501181515 | 61 | 68 | 8.0 | 17.0 | 0.00 | 0.00 | 0.00 | 26 | 1023.1 |
| 20260501181015 | 61 | 90 | 8.0 | 15.0 | 0.00 | 0.00 | 0.00 | 27 | 1023.2 |
| 20260501180516 | 60 | 68 | 8.0 | 13.0 | 0.00 | 0.00 | 0.00 | 28 | 1023.1 |
| 20260501180015 | 60 | 158 | 8.0 | 15.0 | 0.00 | 0.00 | 0.00 | 27 | 1023.3 |
| 20260501175535 | 60 | 158 | 8.0 | 14.0 | 0.00 | 0.00 | 0.00 | 27 | 1023.2 |
| 20260501175036 | 60 | 68 | 5.0 | 14.0 | 0.00 | 0.00 | 0.00 | 27 | 1022.9 |
| 20260501174515 | 59 | 68 | 5.0 | 14.0 | 0.00 | 0.00 | 0.00 | 29 | 1023.0 |
| 20260501174015 | 58 | 180 | 4.0 | 11.0 | 0.00 | 0.00 | 0.00 | 28 | 1022.7 |
| 20260501173515 | 59 | 180 | 7.0 | 13.0 | 0.00 | 0.00 | 0.00 | 25 | 1022.7 |
| 20260501173016 | 58 | 90 | 7.0 | 14.0 | 0.00 | 0.00 | 0.00 | 30 | 1022.8 |
| 20260501172535 | 58 | 135 | 9.0 | 15.0 | 0.00 | 0.00 | 0.00 | 27 | 1022.8 |
| 20260501172015 | 57 | 135 | 10.0 | 16.0 | 0.00 | 0.00 | 0.00 | 28 | 1022.8 |
| 20260501171516 | 57 | 113 | 13.0 | 21.0 | 0.00 | 0.00 | 0.00 | 29 | 1022.9 |
| 20260501171056 | 57 | 158 | 8.0 | 17.0 | 0.00 | 0.00 | 0.00 | 29 | 1022.9 |
| 20260501170535 | 57 | 135 | 8.0 | 15.0 | 0.00 | 0.00 | 0.00 | 29 | 1022.9 |
| 20260501170036 | 57 | 113 | 10.0 | 17.0 | 0.00 | 0.00 | 0.00 | 26 | 1022.9 |
| 20260501165516 | 57 | 113 | 12.0 | 19.0 | 0.00 | 0.00 | 0.00 | 29 | 1022.9 |
| 20260501165036 | 57 | 135 | 10.0 | 21.0 | 0.00 | 0.00 | 0.00 | 29 | 1023.2 |
| 20260501164515 | 57 | 113 | 13.0 | 22.0 | 0.00 | 0.00 | 0.00 | 29 | 1023.2 |
| 20260501164016 | 56 | 135 | 8.0 | 20.0 | 0.00 | 0.00 | 0.00 | 28 | 1022.8 |
| 20260501163515 | 56 | 113 | 15.0 | 23.0 | 0.00 | 0.00 | 0.00 | 29 | 1022.8 |
| 20260501163015 | 56 | 113 | 12.0 | 23.0 | 0.00 | 0.00 | 0.00 | 29 | 1022.7 |
| 20260501162516 | 56 | 135 | 14.0 | 24.0 | 0.00 | 0.00 | 0.00 | 28 | 1022.7 |
| 20260501162036 | 56 | 90 | 13.0 | 19.0 | 0.00 | 0.00 | 0.00 | 30 | 1022.7 |
| 20260501161515 | 55 | 135 | 13.0 | 20.0 | 0.00 | 0.00 | 0.00 | 29 | 1022.7 |
| 20260501161015 | 55 | 135 | 11.0 | 18.0 | 0.00 | 0.00 | 0.00 | 29 | 1022.5 |
| 20260501160515 | 55 | 113 | 16.0 | 30.0 | 0.00 | 0.00 | 0.00 | 29 | 1022.6 |
| 20260501160016 | 55 | 113 | 14.0 | 23.0 | 0.00 | 0.00 | 0.00 | 30 | 1022.4 |